WJA381 CYYZ-CYWG

Flight info

Callsign WJA381
Flight time 2h 15m
Altitude 36000
Route AVSEP7 MUSIT DCT SSM DCT AGLIN DCT GOVIT NORAK6
Aircraft B738/M-SDE2E3FGHIRWXY/LB1

Departure

Time 2026-05-08 14:04
Airport Toronto Pearson International Airport (CYYZ)

Arrival

Time 2026-05-08 16:19
Airport Winnipeg / James Armstrong Richardson International Airport (CYWG)
Time Latitude Longitude Altitude Speed Heading
2026-05-08 13:40 43.68430 -79.61894 560 ft 0 kts 297°
2026-05-08 13:52 43.68427 -79.61887 570 ft 2 kts 296°
2026-05-08 13:52 43.68419 -79.61862 569 ft 3 kts 294°
2026-05-08 13:52 43.68410 -79.61838 570 ft 3 kts 299°
2026-05-08 13:53 43.68403 -79.61814 570 ft 3 kts 270°
2026-05-08 13:53 43.68406 -79.61790 567 ft 3 kts 231°
2026-05-08 13:53 43.68420 -79.61770 570 ft 2 kts 231°
2026-05-08 13:53 43.68424 -79.61762 570 ft 0 kts 237°
2026-05-08 13:55 43.68416 -79.61773 565 ft 4 kts 225°
2026-05-08 13:56 43.68390 -79.61799 560 ft 5 kts 210°
2026-05-08 13:56 43.68336 -79.61834 562 ft 11 kts 193°
2026-05-08 13:56 43.68255 -79.61834 566 ft 12 kts 165°
2026-05-08 13:56 43.68174 -79.61818 565 ft 12 kts 189°
2026-05-08 13:57 43.68113 -79.61887 564 ft 12 kts 225°
2026-05-08 13:57 43.68052 -79.61969 564 ft 12 kts 217°
2026-05-08 13:57 43.67977 -79.62015 563 ft 12 kts 227°
2026-05-08 13:57 43.67968 -79.62085 561 ft 12 kts 290°
2026-05-08 13:58 43.68049 -79.62199 561 ft 16 kts 316°
2026-05-08 13:58 43.68104 -79.62273 561 ft 17 kts 316°
2026-05-08 13:58 43.68187 -79.62379 561 ft 16 kts 317°
2026-05-08 13:58 43.68269 -79.62477 562 ft 15 kts 320°
2026-05-08 13:59 43.68370 -79.62606 566 ft 14 kts 316°
2026-05-08 13:59 43.68418 -79.62670 561 ft 14 kts 316°
2026-05-08 13:59 43.68488 -79.62760 564 ft 13 kts 316°
2026-05-08 13:59 43.68554 -79.62847 564 ft 13 kts 316°
2026-05-08 14:00 43.68619 -79.62930 560 ft 13 kts 317°
2026-05-08 14:00 43.68682 -79.63012 560 ft 12 kts 315°
2026-05-08 14:00 43.68758 -79.63114 561 ft 16 kts 316°
2026-05-08 14:00 43.68838 -79.63214 563 ft 15 kts 316°
2026-05-08 14:01 43.68913 -79.63312 562 ft 15 kts 316°
2026-05-08 14:01 43.68985 -79.63406 563 ft 14 kts 317°
2026-05-08 14:01 43.69053 -79.63496 570 ft 13 kts 314°
2026-05-08 14:01 43.69133 -79.63506 564 ft 13 kts 39°
2026-05-08 14:02 43.69203 -79.63433 567 ft 13 kts 18°
2026-05-08 14:02 43.69289 -79.63421 567 ft 12 kts
2026-05-08 14:02 43.69370 -79.63442 563 ft 12 kts 326°
2026-05-08 14:02 43.69390 -79.63539 561 ft 12 kts 240°
2026-05-08 14:03 43.69329 -79.63635 564 ft 17 kts 226°
2026-05-08 14:03 43.69135 -79.63914 564 ft 73 kts 226°
2026-05-08 14:03 43.68630 -79.64643 565 ft 135 kts 226°
2026-05-08 14:03 43.67884 -79.65733 750 ft 167 kts 226°
2026-05-08 14:04 43.67034 -79.66905 1249 ft 182 kts 226°
2026-05-08 14:04 43.66244 -79.68261 2090 ft 183 kts 234°
2026-05-08 14:04 43.65492 -79.69770 2497 ft 202 kts 237°
2026-05-08 14:04 43.64912 -79.71601 2654 ft 219 kts 267°
2026-05-08 14:05 43.65244 -79.73686 2977 ft 232 kts 289°
2026-05-08 14:05 43.65793 -79.75879 3250 ft 247 kts 288°
2026-05-08 14:05 43.66337 -79.78158 3936 ft 250 kts 287°
2026-05-08 14:05 43.66860 -79.80441 4771 ft 249 kts 287°
2026-05-08 14:06 43.67367 -79.82731 5516 ft 250 kts 287°
2026-05-08 14:06 43.67867 -79.85044 6255 ft 251 kts 287°
2026-05-08 14:06 43.68361 -79.87365 6965 ft 253 kts 287°
2026-05-08 14:06 43.68855 -79.89702 7651 ft 254 kts 287°
2026-05-08 14:07 43.69358 -79.92051 8352 ft 256 kts 290°
2026-05-08 14:07 43.70298 -79.94127 9018 ft 259 kts 315°
2026-05-08 14:07 43.71748 -79.95612 9724 ft 262 kts 327°
2026-05-08 14:07 43.73371 -79.96803 10292 ft 269 kts 330°
2026-05-08 14:08 43.75109 -79.98002 10455 ft 289 kts 330°
2026-05-08 14:08 43.76970 -79.99281 10620 ft 308 kts 330°
2026-05-08 14:08 43.78941 -80.00651 10784 ft 326 kts 330°
2026-05-08 14:08 43.81009 -80.02103 11090 ft 338 kts 330°
2026-05-08 14:09 43.83113 -80.03590 11655 ft 341 kts 330°
2026-05-08 14:09 43.85228 -80.05092 12340 ft 342 kts 330°
2026-05-08 14:09 43.87346 -80.06604 13025 ft 343 kts 329°
2026-05-08 14:09 43.89477 -80.08128 13693 ft 346 kts 329°
2026-05-08 14:10 43.91577 -80.09684 14297 ft 347 kts 325°
2026-05-08 14:10 43.93525 -80.11715 14944 ft 345 kts 316°
2026-05-08 14:10 43.95178 -80.14067 15579 ft 345 kts 307°
2026-05-08 14:10 43.96634 -80.16721 16200 ft 346 kts 305°
2026-05-08 14:11 43.98074 -80.19413 16808 ft 349 kts 304°
2026-05-08 14:11 43.99523 -80.22127 17421 ft 351 kts 304°
2026-05-08 14:11 44.00987 -80.24862 18021 ft 354 kts 304°
2026-05-08 14:11 44.02465 -80.27613 18530 ft 357 kts 304°
2026-05-08 14:12 44.03957 -80.30384 19036 ft 359 kts 304°
2026-05-08 14:12 44.05462 -80.33178 19532 ft 362 kts 304°
2026-05-08 14:12 44.06974 -80.35985 20022 ft 364 kts 304°
2026-05-08 14:12 44.08498 -80.38815 20502 ft 367 kts 304°
2026-05-08 14:13 44.10031 -80.41665 20973 ft 369 kts 304°
2026-05-08 14:13 44.11575 -80.44538 21440 ft 372 kts 304°
2026-05-08 14:13 44.13129 -80.47433 21902 ft 374 kts 304°
2026-05-08 14:13 44.14763 -80.50272 22339 ft 378 kts 309°
2026-05-08 14:14 44.16551 -80.52986 22781 ft 381 kts 310°
2026-05-08 14:14 44.18382 -80.55678 23136 ft 386 kts 310°
2026-05-08 14:14 44.20246 -80.58399 23506 ft 389 kts 310°
2026-05-08 14:14 44.22111 -80.61130 23908 ft 390 kts 310°
2026-05-08 14:15 44.23979 -80.63881 24345 ft 390 kts 310°
2026-05-08 14:15 44.25844 -80.66643 24685 ft 392 kts 310°
2026-05-08 14:15 44.27713 -80.69422 25040 ft 394 kts 310°
2026-05-08 14:15 44.29588 -80.72220 25413 ft 395 kts 310°
2026-05-08 14:16 44.31461 -80.75021 25778 ft 395 kts 310°
2026-05-08 14:16 44.33340 -80.77835 26124 ft 397 kts 310°
2026-05-08 14:16 44.35222 -80.80658 26462 ft 398 kts 310°
2026-05-08 14:16 44.37111 -80.83496 26788 ft 399 kts 310°
2026-05-08 14:17 44.39004 -80.86341 27127 ft 400 kts 310°
2026-05-08 14:17 44.40901 -80.89196 27429 ft 401 kts 310°
2026-05-08 14:17 44.42801 -80.92058 27767 ft 401 kts 310°
2026-05-08 14:17 44.44697 -80.94914 28254 ft 398 kts 310°
2026-05-08 14:18 44.46570 -80.97739 28804 ft 394 kts 310°
2026-05-08 14:18 44.48425 -81.00540 29300 ft 391 kts 310°
2026-05-08 14:18 44.50272 -81.03333 29729 ft 390 kts 310°
2026-05-08 14:18 44.52110 -81.06116 30123 ft 388 kts 310°
2026-05-08 14:19 44.53940 -81.08889 30440 ft 388 kts 310°
2026-05-08 14:19 44.55773 -81.11670 30697 ft 388 kts 309°
2026-05-08 14:19 44.57605 -81.14453 30957 ft 389 kts 309°
2026-05-08 14:19 44.59438 -81.17240 31261 ft 388 kts 309°
2026-05-08 14:20 44.61267 -81.20022 31560 ft 388 kts 309°
2026-05-08 14:20 44.63095 -81.22805 31821 ft 388 kts 309°
2026-05-08 14:20 44.64922 -81.25590 32082 ft 388 kts 309°
2026-05-08 14:20 44.66751 -81.28382 32375 ft 388 kts 309°
2026-05-08 14:21 44.68584 -81.31183 32521 ft 391 kts 309°
2026-05-08 14:21 44.70426 -81.34000 32750 ft 391 kts 309°
2026-05-08 14:21 44.72263 -81.36810 33075 ft 390 kts 309°
2026-05-08 14:21 44.74097 -81.39619 33334 ft 390 kts 309°
2026-05-08 14:22 44.75930 -81.42431 33553 ft 390 kts 309°
2026-05-08 14:22 44.77764 -81.45246 33798 ft 390 kts 309°
2026-05-08 14:22 44.79597 -81.48064 33931 ft 392 kts 308°
2026-05-08 14:23 44.83297 -81.53759 33925 ft 394 kts 308°
2026-05-08 14:23 44.86974 -81.59428 33928 ft 389 kts 308°
2026-05-08 14:24 44.90613 -81.65050 33936 ft 387 kts 308°
2026-05-08 14:24 44.94212 -81.70627 33934 ft 387 kts 308°
2026-05-08 14:25 44.97836 -81.76249 33934 ft 387 kts 308°
2026-05-08 14:25 45.01464 -81.81890 33931 ft 388 kts 308°
2026-05-08 14:26 45.05104 -81.87556 33927 ft 390 kts 308°
2026-05-08 14:26 45.08756 -81.93251 33931 ft 392 kts 308°
2026-05-08 14:27 45.12421 -81.98980 33935 ft 393 kts 308°
2026-05-08 14:27 45.16099 -82.04741 33926 ft 395 kts 308°
2026-05-08 14:28 45.19788 -82.10531 33928 ft 396 kts 308°
2026-05-08 14:28 45.23485 -82.16347 33923 ft 397 kts 308°
2026-05-08 14:29 45.27182 -82.22173 33920 ft 397 kts 308°
2026-05-08 14:29 45.30877 -82.28009 33910 ft 397 kts 308°
2026-05-08 14:30 45.34564 -82.33846 33920 ft 397 kts 308°
2026-05-08 14:30 45.38246 -82.39685 33919 ft 397 kts 308°
2026-05-08 14:31 45.41803 -82.45655 33920 ft 395 kts 305°
2026-05-08 14:31 45.45183 -82.51806 33914 ft 394 kts 305°
2026-05-08 14:32 45.50228 -82.61044 33906 ft 394 kts 304°
2026-05-08 14:32 45.53597 -82.67191 33910 ft 393 kts 304°
2026-05-08 14:33 45.56965 -82.73338 33914 ft 393 kts 305°
2026-05-08 14:33 45.60336 -82.79499 33908 ft 394 kts 305°
2026-05-08 14:34 45.63683 -82.85631 33902 ft 394 kts 305°
2026-05-08 14:34 45.67053 -82.91817 33901 ft 395 kts 305°
2026-05-08 14:35 45.70423 -82.98015 33903 ft 395 kts 304°
2026-05-08 14:35 45.73791 -83.04225 33894 ft 395 kts 304°
2026-05-08 14:36 45.77154 -83.10441 33904 ft 395 kts 304°
2026-05-08 14:36 45.80520 -83.16675 33895 ft 396 kts 304°
2026-05-08 14:37 45.83885 -83.22920 33889 ft 396 kts 304°
2026-05-08 14:37 45.87248 -83.29176 33889 ft 396 kts 304°
2026-05-08 14:38 45.90606 -83.35435 33885 ft 395 kts 304°
2026-05-08 14:38 45.93957 -83.41697 33876 ft 396 kts 304°
2026-05-08 14:39 45.97306 -83.47968 33882 ft 395 kts 304°
2026-05-08 14:39 46.00650 -83.54245 33876 ft 396 kts 304°
2026-05-08 14:40 46.03994 -83.60535 33875 ft 396 kts 304°
2026-05-08 14:40 46.07331 -83.66827 33862 ft 395 kts 304°
2026-05-08 14:41 46.10101 -83.72059 33874 ft 395 kts 304°
2026-05-08 14:41 46.13427 -83.78357 33874 ft 395 kts 304°
2026-05-08 14:42 46.16754 -83.84669 33876 ft 395 kts 304°
2026-05-08 14:42 46.20077 -83.90989 33868 ft 395 kts 304°
2026-05-08 14:43 46.23403 -83.97328 33876 ft 396 kts 304°
2026-05-08 14:43 46.26732 -84.03687 33857 ft 397 kts 304°
2026-05-08 14:44 46.30047 -84.10035 33866 ft 397 kts 304°
2026-05-08 14:44 46.33376 -84.16424 33865 ft 398 kts 304°
2026-05-08 14:45 46.36707 -84.22831 33865 ft 399 kts 304°
2026-05-08 14:45 46.40040 -84.29255 33866 ft 399 kts 304°
2026-05-08 14:46 46.43079 -84.35952 33899 ft 397 kts 298°
2026-05-08 14:46 46.45792 -84.42933 33883 ft 398 kts 297°
2026-05-08 14:47 46.48496 -84.49942 33872 ft 398 kts 297°
2026-05-08 14:47 46.51221 -84.56952 33869 ft 399 kts 298°
2026-05-08 14:48 46.53952 -84.63955 33870 ft 399 kts 298°
2026-05-08 14:48 46.56688 -84.70972 33868 ft 399 kts 298°
2026-05-08 14:49 46.59398 -84.77939 33856 ft 399 kts 297°
2026-05-08 14:49 46.62122 -84.84958 33862 ft 398 kts 297°
2026-05-08 14:50 46.64842 -84.91986 33859 ft 398 kts 297°
2026-05-08 14:50 46.67556 -84.99018 33858 ft 398 kts 297°
2026-05-08 14:51 46.70267 -85.06060 33858 ft 399 kts 297°
2026-05-08 14:51 46.72975 -85.13112 33844 ft 399 kts 297°
2026-05-08 14:52 46.77027 -85.23699 33856 ft 399 kts 297°
2026-05-08 14:53 46.79725 -85.30770 33856 ft 399 kts 297°
2026-05-08 14:53 46.82420 -85.37855 33855 ft 399 kts 297°
2026-05-08 14:54 46.85113 -85.44951 33855 ft 399 kts 297°
2026-05-08 14:54 46.87803 -85.52056 33855 ft 399 kts 297°
2026-05-08 14:55 46.90490 -85.59171 33856 ft 400 kts 297°
2026-05-08 14:55 46.93176 -85.66308 33854 ft 400 kts 297°
2026-05-08 14:56 46.95855 -85.73444 33856 ft 400 kts 297°
2026-05-08 14:56 46.98530 -85.80586 33857 ft 400 kts 297°
2026-05-08 14:57 47.01197 -85.87726 33858 ft 399 kts 297°
2026-05-08 14:57 47.03857 -85.94868 33853 ft 399 kts 297°
2026-05-08 14:58 47.06513 -86.02016 33863 ft 399 kts 297°
2026-05-08 14:58 47.09165 -86.09173 33858 ft 400 kts 297°
2026-05-08 14:59 47.11817 -86.16351 33891 ft 400 kts 297°
2026-05-08 14:59 47.15794 -86.27148 33860 ft 401 kts 297°
2026-05-08 15:00 47.18443 -86.34366 33850 ft 401 kts 297°
2026-05-08 15:00 47.21090 -86.41596 33859 ft 402 kts 297°
2026-05-08 15:01 47.23715 -86.48788 33855 ft 402 kts 297°
2026-05-08 15:01 47.26360 -86.56051 33853 ft 403 kts 297°
2026-05-08 15:02 47.29001 -86.63325 33852 ft 403 kts 297°
2026-05-08 15:02 47.31640 -86.70615 33841 ft 403 kts 296°
2026-05-08 15:03 47.34276 -86.77913 33878 ft 403 kts 297°
2026-05-08 15:03 47.36908 -86.85222 33857 ft 404 kts 297°
2026-05-08 15:04 47.39534 -86.92536 33848 ft 403 kts 297°
2026-05-08 15:04 47.42155 -86.99856 33849 ft 403 kts 297°
2026-05-08 15:05 47.44769 -87.07176 33843 ft 403 kts 296°
2026-05-08 15:05 47.47377 -87.14497 33842 ft 402 kts 296°
2026-05-08 15:06 47.49977 -87.21818 33841 ft 402 kts 296°
2026-05-08 15:06 47.52570 -87.29142 33838 ft 402 kts 296°
2026-05-08 15:07 47.55159 -87.36473 33830 ft 402 kts 296°
2026-05-08 15:07 47.57742 -87.43808 33838 ft 402 kts 296°
2026-05-08 15:08 47.59886 -87.49911 33816 ft 402 kts 296°
2026-05-08 15:08 47.62897 -87.58507 33824 ft 402 kts 296°
2026-05-08 15:09 47.65451 -87.65818 33824 ft 402 kts 296°
2026-05-08 15:09 47.68020 -87.73196 33822 ft 403 kts 296°
2026-05-08 15:10 47.70586 -87.80585 33823 ft 403 kts 296°
2026-05-08 15:10 47.73152 -87.87995 33822 ft 404 kts 296°
2026-05-08 15:11 47.75716 -87.95419 33815 ft 404 kts 296°
2026-05-08 15:11 47.78278 -88.02863 33825 ft 405 kts 296°
2026-05-08 15:12 47.80844 -88.10337 33823 ft 406 kts 296°
2026-05-08 15:12 47.83411 -88.17833 33818 ft 407 kts 296°
2026-05-08 15:13 47.85977 -88.25351 33814 ft 407 kts 296°
2026-05-08 15:13 47.88535 -88.32868 33795 ft 407 kts 296°
2026-05-08 15:14 47.91087 -88.40388 33814 ft 407 kts 296°
2026-05-08 15:14 47.93635 -88.47917 33814 ft 407 kts 296°
2026-05-08 15:15 47.96179 -88.55458 33811 ft 407 kts 296°
2026-05-08 15:15 47.98716 -88.62998 33811 ft 407 kts 296°
2026-05-08 15:16 48.01231 -88.70498 33835 ft 407 kts 296°
2026-05-08 15:16 48.03761 -88.78063 33804 ft 407 kts 296°
2026-05-08 15:17 48.06283 -88.85625 33805 ft 407 kts 296°
2026-05-08 15:17 48.08800 -88.93196 33806 ft 406 kts 296°
2026-05-08 15:18 48.11309 -89.00765 33805 ft 406 kts 296°
2026-05-08 15:18 48.13811 -89.08336 33788 ft 406 kts 296°
2026-05-08 15:19 48.16305 -89.15904 33759 ft 405 kts 296°
2026-05-08 15:19 48.18793 -89.23476 33769 ft 405 kts 296°
2026-05-08 15:20 48.21275 -89.31055 33771 ft 405 kts 296°
2026-05-08 15:20 48.23757 -89.38649 33768 ft 406 kts 296°
2026-05-08 15:21 48.26081 -89.46358 33770 ft 406 kts 290°
2026-05-08 15:21 48.27948 -89.54349 33768 ft 405 kts 290°
2026-05-08 15:22 48.29794 -89.62341 33779 ft 405 kts 290°
2026-05-08 15:22 48.31646 -89.70334 33777 ft 405 kts 290°
2026-05-08 15:23 48.33498 -89.78317 33786 ft 404 kts 290°
2026-05-08 15:23 48.35346 -89.86298 33790 ft 404 kts 290°
2026-05-08 15:24 48.37187 -89.94279 33790 ft 404 kts 289°
2026-05-08 15:24 48.38712 -90.00911 33773 ft 404 kts 290°
2026-05-08 15:25 48.40542 -90.08895 33787 ft 403 kts 289°
2026-05-08 15:25 48.42366 -90.16883 33791 ft 403 kts 289°
2026-05-08 15:26 48.44185 -90.24878 33808 ft 404 kts 289°
2026-05-08 15:26 48.46001 -90.32892 33795 ft 404 kts 289°
2026-05-08 15:27 48.47809 -90.40900 33791 ft 404 kts 289°
2026-05-08 15:27 48.49614 -90.48926 33785 ft 404 kts 289°
2026-05-08 15:28 48.51410 -90.56945 33792 ft 404 kts 289°
2026-05-08 15:28 48.53201 -90.64968 33794 ft 404 kts 289°
2026-05-08 15:29 48.54987 -90.73003 33792 ft 404 kts 289°
2026-05-08 15:29 48.56767 -90.81040 33791 ft 404 kts 289°
2026-05-08 15:30 48.58542 -90.89083 33790 ft 404 kts 289°
2026-05-08 15:30 48.60311 -90.97132 33797 ft 404 kts 289°
2026-05-08 15:31 48.62075 -91.05191 33799 ft 404 kts 289°
2026-05-08 15:31 48.63834 -91.13257 33801 ft 404 kts 289°
2026-05-08 15:32 48.65577 -91.21282 33806 ft 405 kts 289°
2026-05-08 15:32 48.67329 -91.29377 33802 ft 405 kts 289°
2026-05-08 15:33 48.69073 -91.37468 33790 ft 404 kts 289°
2026-05-08 15:33 48.70811 -91.45567 33801 ft 404 kts 289°
2026-05-08 15:34 48.72543 -91.53664 33799 ft 404 kts 289°
2026-05-08 15:34 48.74268 -91.61765 33795 ft 404 kts 289°
2026-05-08 15:35 48.75990 -91.69879 33799 ft 404 kts 289°
2026-05-08 15:35 48.77705 -91.77995 33787 ft 404 kts 289°
2026-05-08 15:36 48.79411 -91.86107 33792 ft 404 kts 289°
2026-05-08 15:36 48.81115 -91.94232 33795 ft 404 kts 289°
2026-05-08 15:37 48.82813 -92.02367 33790 ft 405 kts 289°
2026-05-08 15:37 48.84507 -92.10515 33792 ft 405 kts 288°
2026-05-08 15:38 48.86196 -92.18671 33792 ft 405 kts 288°
2026-05-08 15:38 48.87879 -92.26832 33794 ft 405 kts 288°
2026-05-08 15:39 48.89556 -92.35001 33791 ft 405 kts 288°
2026-05-08 15:39 48.91231 -92.43186 33793 ft 406 kts 288°
2026-05-08 15:40 48.92899 -92.51379 33791 ft 406 kts 288°
2026-05-08 15:40 48.94565 -92.59591 33791 ft 406 kts 288°
2026-05-08 15:41 48.96225 -92.67807 33780 ft 406 kts 288°
2026-05-08 15:41 48.97879 -92.76033 33793 ft 407 kts 288°
2026-05-08 15:42 48.99529 -92.84267 33791 ft 407 kts 288°
2026-05-08 15:42 49.01163 -92.92460 33794 ft 407 kts 288°
2026-05-08 15:43 49.02803 -93.00715 33787 ft 407 kts 288°
2026-05-08 15:43 49.04438 -93.08984 33792 ft 408 kts 288°
2026-05-08 15:44 49.06068 -93.17259 33781 ft 408 kts 288°
2026-05-08 15:44 49.07691 -93.25539 33782 ft 407 kts 288°
2026-05-08 15:45 49.09308 -93.33817 33784 ft 407 kts 288°
2026-05-08 15:45 49.10919 -93.42105 33780 ft 407 kts 288°
2026-05-08 15:46 49.12522 -93.50389 33776 ft 407 kts 288°
2026-05-08 15:46 49.14120 -93.58678 33768 ft 407 kts 288°
2026-05-08 15:47 49.15709 -93.66962 33778 ft 406 kts 288°
2026-05-08 15:47 49.17292 -93.75247 33780 ft 406 kts 288°
2026-05-08 15:48 49.19647 -93.87642 33775 ft 407 kts 288°
2026-05-08 15:49 49.21217 -93.95949 33778 ft 407 kts 288°
2026-05-08 15:49 49.22783 -94.04272 33776 ft 407 kts 288°
2026-05-08 15:50 49.24342 -94.12596 33785 ft 407 kts 288°
2026-05-08 15:50 49.25896 -94.20934 33772 ft 407 kts 288°
2026-05-08 15:51 49.27444 -94.29271 33776 ft 404 kts 288°
2026-05-08 15:51 49.28203 -94.33381 33502 ft 400 kts 288°
2026-05-08 15:51 49.28950 -94.37432 33204 ft 391 kts 288°
2026-05-08 15:51 49.29683 -94.41415 32841 ft 386 kts 288°
2026-05-08 15:52 49.30407 -94.45355 32381 ft 383 kts 288°
2026-05-08 15:52 49.31122 -94.49255 32027 ft 378 kts 288°
2026-05-08 15:52 49.31829 -94.53121 31623 ft 375 kts 288°
2026-05-08 15:52 49.32530 -94.56955 31232 ft 372 kts 288°
2026-05-08 15:53 49.33224 -94.60764 30855 ft 369 kts 288°
2026-05-08 15:53 49.33912 -94.64544 30481 ft 367 kts 288°
2026-05-08 15:53 49.34593 -94.68297 30108 ft 364 kts 288°
2026-05-08 15:53 49.35270 -94.72032 29711 ft 362 kts 288°
2026-05-08 15:54 49.35939 -94.75734 29280 ft 359 kts 288°
2026-05-08 15:54 49.36599 -94.79395 28900 ft 354 kts 288°
2026-05-08 15:54 49.37251 -94.83019 28515 ft 351 kts 288°
2026-05-08 15:54 49.37896 -94.86609 28128 ft 347 kts 288°
2026-05-08 15:55 49.38533 -94.90162 27770 ft 343 kts 288°
2026-05-08 15:55 49.39784 -94.97165 26990 ft 337 kts 288°
2026-05-08 15:55 49.40392 -95.00575 26641 ft 334 kts 288°
2026-05-08 15:56 49.41011 -95.04048 26253 ft 332 kts 288°
2026-05-08 15:56 49.41615 -95.07454 25910 ft 329 kts 288°
2026-05-08 15:56 49.42214 -95.10834 25545 ft 327 kts 288°
2026-05-08 15:56 49.42809 -95.14196 25186 ft 325 kts 288°
2026-05-08 15:57 49.43398 -95.17531 24827 ft 323 kts 288°
2026-05-08 15:57 49.43983 -95.20846 24469 ft 321 kts 288°
2026-05-08 15:57 49.44556 -95.24103 24126 ft 319 kts 288°
2026-05-08 15:57 49.45139 -95.27427 23770 ft 317 kts 288°
2026-05-08 15:58 49.45711 -95.30687 23424 ft 316 kts 288°
2026-05-08 15:58 49.46280 -95.33939 23019 ft 314 kts 288°
2026-05-08 15:58 49.46843 -95.37166 22603 ft 312 kts 289°
2026-05-08 15:58 49.47394 -95.40326 22301 ft 308 kts 289°
2026-05-08 15:59 49.47952 -95.43533 21953 ft 305 kts 289°
2026-05-08 15:59 49.48489 -95.46628 21607 ft 303 kts 289°
2026-05-08 15:59 49.49030 -95.49745 21281 ft 300 kts 289°
2026-05-08 15:59 49.49565 -95.52838 20939 ft 299 kts 289°
2026-05-08 16:00 49.50098 -95.55919 20594 ft 297 kts 289°
2026-05-08 16:00 49.50626 -95.58980 20259 ft 295 kts 289°
2026-05-08 16:00 49.51149 -95.62020 19928 ft 293 kts 289°
2026-05-08 16:00 49.51668 -95.65039 19606 ft 291 kts 289°
2026-05-08 16:01 49.52184 -95.68042 19278 ft 289 kts 289°
2026-05-08 16:01 49.52697 -95.71030 18955 ft 288 kts 289°
2026-05-08 16:01 49.53206 -95.74003 18628 ft 287 kts 289°
2026-05-08 16:01 49.53709 -95.76954 18356 ft 284 kts 289°
2026-05-08 16:02 49.54203 -95.79857 18176 ft 278 kts 289°
2026-05-08 16:02 49.54765 -95.82708 17851 ft 278 kts 294°
2026-05-08 16:02 49.55491 -95.85466 17507 ft 279 kts 296°
2026-05-08 16:02 49.56272 -95.88239 17212 ft 288 kts 296°
2026-05-08 16:03 49.57083 -95.91095 16862 ft 294 kts 296°
2026-05-08 16:03 49.57886 -95.93948 16506 ft 293 kts 296°
2026-05-08 16:03 49.58700 -95.96860 16152 ft 291 kts 296°
2026-05-08 16:03 49.59493 -95.99715 15829 ft 289 kts 296°
2026-05-08 16:04 49.60278 -96.02555 15493 ft 287 kts 295°
2026-05-08 16:04 49.61046 -96.05342 15166 ft 285 kts 295°
2026-05-08 16:04 49.61818 -96.08151 14831 ft 284 kts 295°
2026-05-08 16:04 49.62586 -96.10948 14509 ft 282 kts 295°
2026-05-08 16:05 49.63348 -96.13732 14183 ft 281 kts 295°
2026-05-08 16:05 49.64107 -96.16506 13860 ft 280 kts 295°
2026-05-08 16:05 49.64872 -96.19308 13525 ft 279 kts 295°
2026-05-08 16:05 49.65614 -96.22028 13175 ft 278 kts 294°
2026-05-08 16:06 49.66362 -96.24773 12829 ft 277 kts 294°
2026-05-08 16:06 49.67106 -96.27509 12498 ft 275 kts 294°
2026-05-08 16:06 49.67844 -96.30227 12175 ft 274 kts 294°
2026-05-08 16:06 49.68577 -96.32929 11836 ft 272 kts 295°
2026-05-08 16:07 49.69306 -96.35619 11526 ft 271 kts 295°
2026-05-08 16:07 49.70032 -96.38299 11218 ft 270 kts 294°
2026-05-08 16:07 49.70755 -96.40967 10905 ft 269 kts 294°
2026-05-08 16:07 49.71475 -96.43631 10587 ft 269 kts 294°
2026-05-08 16:08 49.72191 -96.46285 10381 ft 265 kts 294°
2026-05-08 16:08 49.72888 -96.48873 10237 ft 258 kts 294°
2026-05-08 16:08 49.73568 -96.51410 10122 ft 252 kts 292°
2026-05-08 16:08 49.73888 -96.54037 9947 ft 251 kts 274°
2026-05-08 16:09 49.73881 -96.56731 9684 ft 251 kts 273°
2026-05-08 16:09 49.73873 -96.58516 9491 ft 250 kts 273°
2026-05-08 16:09 49.73858 -96.62103 9121 ft 249 kts 273°
2026-05-08 16:09 49.73852 -96.63873 8934 ft 248 kts 273°
2026-05-08 16:10 49.73843 -96.66530 8669 ft 247 kts 273°
2026-05-08 16:10 49.73835 -96.69174 8415 ft 245 kts 273°
2026-05-08 16:10 49.73828 -96.71804 8160 ft 244 kts 273°
2026-05-08 16:10 49.73821 -96.74418 7904 ft 243 kts 273°
2026-05-08 16:11 49.73815 -96.77022 7649 ft 242 kts 273°
2026-05-08 16:11 49.73808 -96.79613 7390 ft 240 kts 274°
2026-05-08 16:11 49.73801 -96.82189 7149 ft 239 kts 274°
2026-05-08 16:11 49.73793 -96.84754 6894 ft 238 kts 274°
2026-05-08 16:12 49.73786 -96.87308 6650 ft 237 kts 274°
2026-05-08 16:12 49.73777 -96.89848 6404 ft 236 kts 274°
2026-05-08 16:12 49.73768 -96.92369 6189 ft 234 kts 274°
2026-05-08 16:12 49.73757 -96.94853 6079 ft 231 kts 274°
2026-05-08 16:13 49.73763 -96.97341 5989 ft 232 kts 277°
2026-05-08 16:13 49.74000 -96.99837 5694 ft 235 kts 284°
2026-05-08 16:13 49.74320 -97.02283 5448 ft 230 kts 285°
2026-05-08 16:13 49.74633 -97.04668 5180 ft 222 kts 285°
2026-05-08 16:14 49.74928 -97.06968 4939 ft 214 kts 284°
2026-05-08 16:14 49.75206 -97.09185 4681 ft 206 kts 285°
2026-05-08 16:14 49.75474 -97.11352 4448 ft 204 kts 284°
2026-05-08 16:14 49.75737 -97.13511 4233 ft 205 kts 284°
2026-05-08 16:15 49.75997 -97.15670 4010 ft 205 kts 284°
2026-05-08 16:15 49.76258 -97.17848 3781 ft 205 kts 284°
2026-05-08 16:15 49.76516 -97.20011 3545 ft 204 kts 284°
2026-05-08 16:15 49.76844 -97.22139 3290 ft 203 kts 295°
2026-05-08 16:16 49.77545 -97.23970 3056 ft 193 kts 315°
2026-05-08 16:16 49.78535 -97.25227 2835 ft 178 kts 333°
2026-05-08 16:16 49.79631 -97.25950 2722 ft 169 kts 348°
2026-05-08 16:16 49.80815 -97.26171 2590 ft 170 kts
2026-05-08 16:17 49.81978 -97.25928 2330 ft 165 kts
2026-05-08 16:17 49.83083 -97.25659 2023 ft 161 kts
2026-05-08 16:17 49.84166 -97.25399 1764 ft 155 kts
2026-05-08 16:17 49.85209 -97.25159 1622 ft 145 kts
2026-05-08 16:18 49.86185 -97.24946 1435 ft 141 kts
2026-05-08 16:18 49.87151 -97.24752 1299 ft 142 kts
2026-05-08 16:18 49.88168 -97.24511 1132 ft 149 kts
2026-05-08 16:18 49.89202 -97.24265 925 ft 150 kts
2026-05-08 16:19 49.90191 -97.24032 789 ft 133 kts
2026-05-08 16:19 49.90961 -97.23853 787 ft 83 kts
2026-05-08 16:19 49.91198 -97.23779 787 ft 19 kts 42°
2026-05-08 16:19 49.91211 -97.23647 786 ft 5 kts 103°
2026-05-08 16:20 49.91210 -97.23644 786 ft 1 kts 104°
2026-05-08 16:20 49.91174 -97.23578 786 ft 15 kts 153°
2026-05-08 16:20 49.91062 -97.23497 785 ft 19 kts 154°
2026-05-08 16:20 49.90948 -97.23414 785 ft 18 kts 155°
2026-05-08 16:21 49.90870 -97.23335 785 ft 11 kts 110°
2026-05-08 16:21 49.90872 -97.23217 785 ft 11 kts 84°
2026-05-08 16:21 49.90878 -97.23102 785 ft 11 kts 85°
2026-05-08 16:21 49.90884 -97.22990 785 ft 10 kts 85°
2026-05-08 16:22 49.90889 -97.22882 785 ft 10 kts 98°
2026-05-08 16:22 49.90857 -97.22788 785 ft 10 kts 122°